DB0MW-13 Weather Reports


time (UTC)temp
F
wind
direction
speed
knots
gust
knots
rain 1hr
in
rain 24hr
in
rain mn
in
humidity
%
barometer
mb
20260506091501 60 280 2.6 7.0 0.00 0.11 0.05 71 1006.7
20260506091001 59 308 3.5 7.0 0.00 0.11 0.05 72 1007.0
20260506090501 60 341 2.6 7.8 0.00 0.11 0.05 73 1006.7
20260506090001 60 290 1.7 4.3 0.00 0.11 0.05 72 1007.0
20260506085501 60 12 0.9 4.3 0.00 0.11 0.05 72 1006.9
20260506085001 59 343 0.9 4.3 0.00 0.11 0.05 73 1006.8
20260506084501 59 26 1.7 3.5 0.00 0.11 0.05 75 1006.8
20260506084001 59 352 1.7 4.3 0.00 0.11 0.05 76 1006.9
20260506083501 59 337 1.7 7.8 0.00 0.11 0.05 77 1006.6
20260506083001 59 274 0.9 5.2 0.00 0.11 0.05 78 1006.9
20260506082501 59 7 0.9 1.7 0.00 0.11 0.05 78 1006.6
20260506082000 59 358 0.9 3.5 0.00 0.11 0.05 78 1006.5
20260506081500 59 345 1.7 3.5 0.00 0.11 0.05 77 1006.6
20260506081000 60 334 2.6 5.2 0.00 0.11 0.05 78 1006.6
20260506080500 60 284 1.7 5.2 0.00 0.11 0.05 78 1006.6
20260506073500 60 271 1.7 3.5 0.00 0.11 0.05 77 1006.5
20260506073000 60 301 1.7 4.3 0.00 0.11 0.05 74 1006.6
20260506072500 60 352 1.7 4.3 0.00 0.11 0.05 77 1006.5
20260506072000 60 357 1.7 5.2 0.00 0.11 0.05 79 1006.7
20260506071000 59 317 1.7 5.2 0.00 0.11 0.05 80 1006.5
20260506070500 59 324 1.7 3.5 0.00 0.11 0.05 82 1006.5
20260506062501 56 339 1.7 3.5 0.00 0.11 0.05 89 1006.7
20260506062001 56 343 0.9 3.5 0.00 0.11 0.05 90 1006.3
20260506061500 56 289 0.9 1.7 0.00 0.11 0.05 91 1006.7
20260506061000 56 297 1.7 2.6 0.00 0.11 0.05 92 1006.7
20260506060500 56 298 1.7 4.3 0.00 0.11 0.05 92 1006.7
20260506051001 54 319 1.7 2.6 0.00 0.11 0.05 97 1006.6
20260506050500 54 279 1.7 3.5 0.00 0.11 0.05 97 1006.5
20260506045001 55 277 0.9 2.6 0.00 0.11 0.05 97 1006.4
20260506044501 55 1 0.9 4.3 0.00 0.11 0.05 97 1006.6
20260506044001 55 290 0.9 5.2 0.00 0.11 0.05 97 1006.6
20260506043501 55 341 0.9 7.0 0.00 0.11 0.05 97 1006.6
20260506043001 55 340 0.9 5.2 0.00 0.11 0.05 97 1006.4
20260506042501 55 287 0.9 2.6 0.00 0.11 0.05 98 1006.6
20260506042001 55 324 0.9 1.7 0.00 0.11 0.05 98 1006.5
20260506041501 54 308 0.9 1.7 0.00 0.11 0.05 98 1006.6
20260506041001 54 351 0.9 3.5 0.00 0.11 0.05 98 1006.6
20260506040500 54 303 0.9 3.5 0.00 0.11 0.05 98 1006.4
20260506040001 54 342 0.9 4.3 0.00 0.11 0.05 98 1006.6
20260506035500 54 273 0.9 2.6 0.00 0.11 0.05 98 1006.5
20260506035000 54 324 0.9 4.3 0.00 0.11 0.05 99 1006.7
20260506034500 54 294 0.9 2.6 0.00 0.11 0.05 98 1006.9
20260506034000 55 339 0.9 2.6 0.00 0.11 0.05 98 1006.5
20260506033500 55 344 0.9 2.6 0.00 0.11 0.05 98 1006.7
20260506033000 55 268 1.7 1.7 0.00 0.11 0.05 98 1006.4
20260506032500 55 271 0.9 4.3 0.00 0.11 0.05 98 1006.6
20260506032000 55 336 0.9 1.7 0.00 0.11 0.05 98 1006.6
20260506031500 55 322 0.9 1.7 0.00 0.11 0.05 98 1006.5
20260506031000 55 299 0.9 4.3 0.00 0.11 0.05 98 1006.6
20260506030500 55 311 0.9 2.6 0.00 0.11 0.05 98 1006.8
20260506030000 55 308 0.9 3.5 0.00 0.11 0.05 97 1006.7
20260506025500 55 293 0.9 3.5 0.00 0.11 0.05 97 1006.7
20260506025001 55 291 0.9 3.5 0.00 0.11 0.05 97 1006.9
20260506024501 55 267 0.0 2.6 0.00 0.11 0.05 98 1006.9
20260506024001 55 335 0.0 1.7 0.00 0.11 0.05 98 1006.6
20260506023501 55 307 0.0 1.7 0.00 0.11 0.05 98 1006.9
20260506023001 55 326 0.0 0.9 0.00 0.11 0.05 98 1006.8
20260506022501 55 337 0.0 1.7 0.00 0.11 0.05 98 1006.9
20260506022001 55 298 0.0 0.9 0.00 0.11 0.05 98 1006.9
20260506021501 55 291 0.0 1.7 0.00 0.11 0.05 98 1006.8
20260506021001 55 298 0.0 0.9 0.00 0.11 0.05 98 1007.1
20260506020500 55 341 0.9 1.7 0.00 0.11 0.05 98 1007.0
20260506020000 55 337 0.0 1.7 0.00 0.11 0.05 98 1007.1
20260506015500 55 339 0.0 0.9 0.00 0.11 0.05 98 1007.2
20260506015001 55 307 0.0 2.6 0.00 0.11 0.05 98 1006.8
20260506014500 55 3 0.9 1.7 0.00 0.11 0.05 98 1006.9
20260506014000 55 309 0.9 2.6 0.00 0.11 0.05 98 1007.2
20260506013500 55 324 0.0 3.5 0.00 0.11 0.05 98 1007.1
20260506013000 55 323 0.0 1.7 0.00 0.11 0.05 98 1007.1
20260506012500 55 337 0.9 3.5 0.00 0.11 0.05 98 1007.3
20260506012000 55 285 0.9 1.7 0.00 0.10 0.05 98 1007.3
20260506011500 55 329 0.9 1.7 0.00 0.10 0.05 98 1007.4
20260506011000 56 339 0.0 1.7 0.00 0.10 0.05 98 1007.2
20260506010500 56 355 0.0 2.6 0.00 0.10 0.05 98 1007.1
20260506010000 56 333 0.0 2.6 0.00 0.10 0.05 98 1007.2
20260506005500 56 333 0.0 0.9 0.00 0.10 0.05 98 1007.3
20260506005000 56 295 0.0 2.6 0.00 0.10 0.05 98 1007.0
20260506004500 56 281 0.0 1.7 0.00 0.10 0.05 98 1007.1
20260506004000 56 288 0.0 0.9 0.00 0.10 0.05 98 1007.2
20260506003500 56 290 0.9 2.6 0.00 0.10 0.05 98 1007.3
20260506003001 56 311 0.9 1.7 0.00 0.10 0.05 98 1007.3
20260506002501 56 284 0.9 3.5 0.00 0.10 0.05 98 1007.4
20260506002001 56 269 1.7 4.3 0.00 0.10 0.05 98 1007.3
20260506001501 57 326 0.9 3.5 0.00 0.10 0.05 98 1007.1
20260506001001 57 270 0.9 3.5 0.00 0.10 0.05 98 1007.2
20260506000501 57 298 0.9 2.6 0.01 0.10 0.05 98 1007.3
20260506000001 57 256 0.9 3.5 0.01 0.10 0.05 98 1007.3
20260505235501 57 338 1.7 2.6 0.01 0.10 0.05 98 1007.5
20260505235001 57 295 0.9 2.6 0.01 0.10 0.05 98 1007.4
20260505234500 57 323 0.9 1.7 0.02 0.10 0.05 98 1007.5
20260505234001 57 344 1.7 2.6 0.02 0.10 0.05 98 1007.6
20260505233500 57 4 1.7 4.3 0.02 0.10 0.05 98 1007.6
20260505233000 57 0 1.7 3.5 0.02 0.10 0.05 98 1007.6
20260505232501 57 334 0.9 5.2 0.03 0.10 0.05 98 1007.4
20260505232000 57 267 0.9 2.6 0.03 0.10 0.05 98 1007.6
20260505231500 57 325 0.9 1.7 0.04 0.10 0.05 98 1007.6
20260505231000 57 272 0.9 0.9 0.04 0.10 0.04 98 1007.5
20260505230500 57 268 0.9 2.6 0.04 0.09 0.04 98 1007.5
20260505230000 57 291 0.9 1.7 0.04 0.09 0.04 97 1007.6
20260505225500 57 252 0.9 3.5 0.03 0.09 0.03 97 1007.7
20260505225000 57 295 0.9 2.6 0.03 0.09 0.03 97 1007.7
20260505224500 57 359 0.9 1.7 0.03 0.09 0.03 97 1007.8
20260505224000 57 294 0.9 1.7 0.03 0.09 0.03 96 1007.5
20260505223500 58 346 0.0 0.9 0.03 0.08 0.03 96 1007.8
20260505223000 58 354 0.0 3.5 0.02 0.08 0.02 96 1007.7
20260505222500 58 304 0.9 3.5 0.02 0.07 0.02 95 1007.7
20260505222000 58 319 1.7 5.2 0.01 0.07 0.01 95 1007.8
20260505221501 58 258 1.7 3.5 0.00 0.05 0.00 95 1007.7
20260505221001 58 266 1.7 2.6 0.00 0.05 0.00 95 1007.8
20260505220501 58 300 0.9 2.6 0.00 0.05 0.00 95 1007.9
20260505220001 58 297 0.9 3.5 0.00 0.05 0.05 95 1007.8
20260505215501 58 301 0.9 1.7 0.00 0.05 0.05 95 1007.9
20260505215001 58 301 0.0 2.6 0.00 0.05 0.05 95 1007.7
20260505214503 58 340 0.0 2.6 0.00 0.05 0.05 95 1007.9
20260505214001 58 343 0.0 0.9 0.00 0.05 0.05 95 1007.8
20260505213501 58 343 0.0 0.9 0.00 0.05 0.05 95 1008.0
20260505213001 58 343 0.0 0.9 0.00 0.05 0.05 95 1007.8
20260505212500 58 343 0.0 0.9 0.00 0.05 0.05 95 1008.0
20260505212000 58 343 0.0 0.0 0.00 0.05 0.05 95 1007.9
20260505211501 58 343 0.0 0.0 0.00 0.05 0.05 95 1008.0
20260505211001 58 343 0.0 0.9 0.00 0.05 0.05 95 1008.0
20260505210500 58 343 0.0 0.0 0.00 0.05 0.05 95 1008.2
20260505210000 58 343 0.0 0.0 0.00 0.05 0.05 95 1008.1
20260505205502 58 343 0.0 0.9 0.00 0.05 0.05 95 1008.1
20260505205000 58 343 0.0 0.9 0.00 0.05 0.05 95 1007.9
20260505204500 58 343 0.0 0.9 0.00 0.05 0.05 95 1008.0
20260505204000 58 347 0.0 0.0 0.00 0.05 0.05 95 1008.0
20260505203500 59 347 0.0 0.9 0.00 0.05 0.05 95 1008.3
20260505203000 59 347 0.0 0.0 0.00 0.05 0.05 95 1007.8
20260505202000 59 347 0.0 0.0 0.00 0.05 0.05 95 1007.9
20260505201500 59 347 0.0 0.0 0.00 0.05 0.05 95 1008.0
20260505201000 59 347 0.0 0.9 0.00 0.05 0.05 95 1008.0
20260505200500 59 347 0.0 0.9 0.00 0.05 0.05 95 1008.1
20260505200001 59 347 0.0 0.0 0.00 0.05 0.05 95 1007.9
20260505195501 59 347 0.0 0.9 0.00 0.05 0.05 95 1008.1
20260505195001 59 347 0.0 0.0 0.00 0.05 0.05 94 1008.0
20260505194501 59 347 0.0 0.9 0.00 0.05 0.05 94 1008.0
20260505194001 59 347 0.0 0.0 0.00 0.05 0.05 94 1008.1
20260505193501 59 347 0.0 0.9 0.00 0.05 0.05 94 1008.0
20260505193001 59 347 0.0 0.0 0.00 0.05 0.05 93 1007.7
20260505192501 59 348 0.0 0.9 0.00 0.05 0.05 93 1007.8
20260505192001 59 348 0.0 0.0 0.00 0.05 0.05 93 1007.7
20260505191500 59 348 0.0 0.0 0.00 0.05 0.05 92 1007.9
20260505191000 60 348 0.0 1.7 0.00 0.05 0.05 92 1007.7
20260505190500 60 348 0.0 0.9 0.00 0.05 0.05 92 1007.8
20260505190000 60 348 0.0 0.0 0.00 0.05 0.05 91 1007.7
20260505185500 60 348 0.0 0.9 0.00 0.05 0.05 91 1007.5
20260505185000 60 348 0.0 0.0 0.00 0.05 0.05 90 1007.8
20260505184501 60 349 0.0 0.0 0.00 0.05 0.05 90 1007.8
20260505184000 60 348 0.0 0.9 0.00 0.05 0.05 91 1007.7
20260505183500 60 348 0.0 0.0 0.00 0.05 0.05 91 1007.8
20260505183000 60 349 0.0 0.9 0.00 0.05 0.05 91 1007.8
20260505182500 60 349 0.0 0.9 0.00 0.05 0.05 91 1007.8
20260505182000 60 349 0.0 0.0 0.00 0.05 0.05 90 1007.8
20260505181500 60 349 0.0 0.0 0.00 0.05 0.05 90 1007.7
20260505181001 60 349 0.0 0.9 0.00 0.05 0.05 90 1007.7
20260505180501 60 354 0.0 0.0 0.00 0.05 0.05 90 1007.9
20260505180001 60 354 0.0 0.0 0.00 0.05 0.05 89 1007.8
20260505175501 61 354 0.0 0.0 0.00 0.05 0.05 89 1007.7
20260505175001 61 354 0.0 0.0 0.00 0.05 0.05 89 1007.8
20260505174501 61 354 0.0 0.9 0.00 0.05 0.05 89 1008.0
20260505174001 61 1 0.0 0.9 0.00 0.05 0.05 88 1007.9
20260505173501 61 2 0.0 1.7 0.00 0.05 0.05 88 1007.8
20260505173002 61 2 0.0 0.0 0.00 0.05 0.05 88 1008.0
20260505172500 61 2 0.0 0.9 0.00 0.05 0.05 87 1007.9
20260505172001 61 4 0.0 0.9 0.00 0.05 0.05 87 1007.9
20260505171500 61 7 0.0 0.9 0.00 0.05 0.05 87 1008.1
20260505171000 61 9 0.0 0.9 0.00 0.05 0.05 87 1008.1
20260505170501 61 8 0.0 0.9 0.00 0.05 0.05 87 1008.0
20260505170000 61 14 0.9 0.9 0.00 0.05 0.05 86 1008.2
20260505165500 61 9 0.9 1.7 0.01 0.05 0.05 86 1008.0
20260505165000 61 343 0.9 1.7 0.01 0.05 0.05 86 1008.2
20260505164500 62 344 0.9 2.6 0.02 0.05 0.05 85 1008.2
20260505164000 62 20 0.9 1.7 0.02 0.05 0.05 85 1008.0
20260505163500 62 29 0.9 1.7 0.02 0.05 0.05 85 1008.1
20260505163000 62 13 1.7 1.7 0.02 0.05 0.05 85 1008.1
20260505162500 62 26 0.9 2.6 0.02 0.05 0.05 85 1008.1
20260505161500 62 9 1.7 2.6 0.03 0.05 0.05 85 1008.1
20260505161001 62 14 1.7 2.6 0.03 0.05 0.05 85 1008.3
20260505160501 62 10 0.9 4.3 0.03 0.04 0.04 86 1008.3
20260505153000 64 344 0.9 1.7 0.02 0.02 0.02 85 1008.7
20260505152500 64 341 1.7 1.7 0.01 0.02 0.02 85 1008.7
20260505152001 64 262 2.6 4.3 0.01 0.02 0.02 83 1008.7
20260505151500 64 354 2.6 4.3 0.00 0.01 0.01 81 1008.5
20260505151000 65 304 2.6 7.0 0.00 0.01 0.01 80 1008.5
20260505150500 65 347 1.7 4.3 0.00 0.01 0.01 79 1008.4
20260505140501 67 6 1.7 3.5 0.00 0.00 0.00 74 1008.4
20260505125000 71 336 0.9 3.5 0.00 0.00 0.00 52 1008.2
20260505124500 71 312 1.7 3.5 0.00 0.00 0.00 51 1008.2
20260505124000 71 327 0.9 3.5 0.00 0.00 0.00 52 1008.2
20260505123500 71 300 0.9 1.7 0.00 0.00 0.00 52 1008.5
20260505123000 71 268 0.9 1.7 0.00 0.00 0.00 52 1008.4
20260505122500 71 244 0.9 2.6 0.00 0.00 0.00 52 1008.4
20260505122000 71 268 0.9 2.6 0.00 0.00 0.00 52 1008.3
20260505121500 71 2 0.9 4.3 0.00 0.00 0.00 52 1008.6
20260505121000 71 326 0.9 1.7 0.00 0.00 0.00 51 1008.4
20260505120500 71 329 0.9 1.7 0.00 0.00 0.00 50 1008.4
20260505120001 71 235 0.9 1.7 0.00 0.00 0.00 51 1008.8
20260505115501 71 308 0.9 3.5 0.00 0.00 0.00 50 1008.5
20260505115001 72 274 0.9 3.5 0.00 0.00 0.00 51 1008.7
20260505114501 72 252 0.9 3.5 0.00 0.00 0.00 48 1008.6
20260505114001 72 203 1.7 1.7 0.00 0.00 0.00 51 1008.5
20260505113501 72 204 1.7 2.6 0.00 0.00 0.00 51 1008.5
20260505113001 71 212 1.7 3.5 0.00 0.00 0.00 51 1008.6
20260505112501 72 229 1.7 1.7 0.00 0.00 0.00 51 1008.8
20260505112001 72 280 0.0 3.5 0.00 0.00 0.00 51 1008.7
20260505111500 72 322 0.9 1.7 0.00 0.00 0.00 50 1008.6
20260505111001 72 301 0.9 0.9 0.00 0.00 0.00 51 1008.9
20260505110501 72 17 0.9 2.6 0.00 0.00 0.00 50 1008.9
20260505102000 71 8 0.9 3.5 0.00 0.00 0.00 55 1009.3
20260505101501 71 173 0.9 1.7 0.00 0.00 0.00 55 1009.3
20260505101001 71 198 0.9 2.6 0.00 0.00 0.00 54 1009.5
20260505100501 71 190 0.9 4.3 0.00 0.00 0.00 53 1009.4
20260505100001 70 185 0.9 4.3 0.00 0.00 0.00 53 1009.2
20260505095501 70 306 0.0 1.7 0.00 0.00 0.00 53 1009.4
20260505095001 70 4 0.9 1.7 0.00 0.00 0.00 53 1009.3
20260505094501 70 16 0.9 4.3 0.00 0.00 0.00 53 1009.3
20260505094001 70 350 1.7 2.6 0.00 0.00 0.00 54 1009.6
20260505093500 70 38 0.0 5.2 0.00 0.00 0.00 54 1009.3
20260505093001 70 308 0.0 0.9 0.00 0.00 0.00 54 1009.5
20260505092500 69 323 0.9 1.7 0.00 0.00 0.00 53 1009.5
20260505092000 69 324 0.9 2.6 0.00 0.00 0.00 53 1009.6